| time (UTC) | temp F | wind direction | speed MPH | gust MPH | rain 1hr in | rain 24hr in | rain mn in | humidity % | barometer mb |
| 20260509041531 | 56 | 212 | 4.0 | 8.0 | 0.00 | 0.10 | 0.10 | 84 | 1011.3 |
| 20260509041009 | 57 | 190 | 2.0 | 8.0 | 0.00 | 0.10 | 0.10 | 84 | 1011.2 |
| 20260509040511 | 57 | 204 | 4.0 | 11.0 | 0.00 | 0.10 | 0.10 | 84 | 1011.2 |
| 20260509040023 | 57 | 182 | 5.0 | 14.0 | 0.00 | 0.10 | 0.10 | 83 | 1011.1 |
| 20260509035513 | 57 | 204 | 6.0 | 14.0 | 0.00 | 0.10 | 0.10 | 83 | 1011.1 |
| 20260509035015 | 57 | 190 | 5.0 | 16.0 | 0.00 | 0.10 | 0.10 | 82 | 1011.1 |
| 20260509034525 | 57 | 171 | 6.0 | 16.0 | 0.00 | 0.10 | 0.10 | 82 | 1011.0 |
| 20260509034010 | 56 | 207 | 6.0 | 11.0 | 0.00 | 0.10 | 0.10 | 83 | 1010.8 |
| 20260509033503 | 56 | 232 | 5.0 | 11.0 | 0.01 | 0.10 | 0.10 | 83 | 1010.7 |
| 20260509033010 | 56 | 227 | 3.0 | 8.0 | 0.02 | 0.10 | 0.10 | 84 | 1010.8 |
| 20260509032507 | 56 | 188 | 4.0 | 8.0 | 0.03 | 0.10 | 0.10 | 84 | 1010.7 |
| 20260509032005 | 56 | 167 | 3.0 | 10.0 | 0.04 | 0.10 | 0.10 | 84 | 1010.5 |
| 20260509031521 | 56 | 238 | 5.0 | 10.0 | 0.05 | 0.10 | 0.10 | 83 | 1010.6 |
| 20260509031010 | 56 | 235 | 4.0 | 11.0 | 0.07 | 0.10 | 0.10 | 83 | 1010.4 |
| 20260509030511 | 56 | 162 | 5.0 | 11.0 | 0.09 | 0.10 | 0.10 | 82 | 1010.3 |
| 20260509030025 | 56 | 190 | 6.0 | 14.0 | 0.09 | 0.10 | 0.10 | 82 | 1010.4 |
| 20260509025507 | 57 | 163 | 6.0 | 15.0 | 0.09 | 0.10 | 0.10 | 82 | 1010.4 |
| 20260509025014 | 57 | 206 | 7.0 | 15.0 | 0.09 | 0.10 | 0.10 | 81 | 1010.3 |
| 20260509024523 | 57 | 198 | 7.0 | 14.0 | 0.09 | 0.10 | 0.10 | 79 | 1010.2 |
| 20260509024011 | 57 | 199 | 7.0 | 14.0 | 0.10 | 0.10 | 0.10 | 78 | 1009.3 |
| 20260509023510 | 57 | 194 | 7.0 | 24.0 | 0.09 | 0.09 | 0.09 | 79 | 1010.6 |
| 20260509023028 | 58 | 197 | 8.0 | 24.0 | 0.08 | 0.08 | 0.08 | 77 | 1011.8 |
| 20260509022508 | 58 | 276 | 11.0 | 27.0 | 0.07 | 0.07 | 0.07 | 75 | 1013.0 |
| 20260509022003 | 59 | 259 | 14.0 | 27.0 | 0.06 | 0.06 | 0.06 | 72 | 1012.5 |
| 20260509021512 | 60 | 261 | 8.0 | 27.0 | 0.05 | 0.05 | 0.05 | 72 | 1012.5 |
| 20260509020508 | 61 | 256 | 10.0 | 23.0 | 0.01 | 0.01 | 0.01 | 67 | 1012.8 |
| 20260509020033 | 61 | 224 | 7.0 | 21.0 | 0.01 | 0.01 | 0.01 | 67 | 1012.6 |
| 20260509015507 | 62 | 257 | 10.0 | 21.0 | 0.01 | 0.01 | 0.01 | 67 | 1012.3 |
| 20260509015007 | 62 | 261 | 7.0 | 21.0 | 0.01 | 0.01 | 0.01 | 69 | 1012.5 |
| 20260509014521 | 63 | 253 | 9.0 | 17.0 | 0.01 | 0.01 | 0.01 | 69 | 1012.3 |
| 20260509014011 | 64 | 199 | 4.0 | 10.0 | 0.00 | 0.00 | 0.00 | 68 | 1012.7 |
| 20260509013507 | 64 | 257 | 2.0 | 8.0 | 0.00 | 0.00 | 0.00 | 65 | 1012.6 |
| 20260509013036 | 65 | 250 | 3.0 | 9.0 | 0.00 | 0.00 | 0.00 | 64 | 1012.6 |
| 20260509012510 | 65 | 211 | 3.0 | 9.0 | 0.00 | 0.00 | 0.00 | 62 | 1012.3 |
| 20260509012009 | 65 | 233 | 3.0 | 7.0 | 0.00 | 0.00 | 0.00 | 61 | 1012.0 |
| 20260509011525 | 65 | 253 | 3.0 | 5.0 | 0.00 | 0.00 | 0.00 | 60 | 1011.8 |
| 20260509011009 | 65 | 240 | 1.0 | 7.0 | 0.00 | 0.00 | 0.00 | 60 | 1011.4 |
| 20260509010504 | 65 | 244 | 2.0 | 7.0 | 0.00 | 0.00 | 0.00 | 60 | 1011.3 |
| 20260509010014 | 65 | 247 | 1.0 | 3.0 | 0.00 | 0.00 | 0.00 | 60 | 1011.1 |
| 20260509005506 | 66 | 240 | 0.0 | 3.0 | 0.00 | 0.00 | 0.00 | 61 | 1010.9 |
| 20260509005005 | 66 | 223 | 1.0 | 3.0 | 0.00 | 0.00 | 0.00 | 61 | 1010.8 |
| 20260509004522 | 66 | 217 | 1.0 | 5.0 | 0.00 | 0.00 | 0.00 | 60 | 1010.7 |
| 20260509004002 | 67 | 159 | 3.0 | 5.0 | 0.00 | 0.00 | 0.00 | 57 | 1010.6 |
| 20260509003503 | 68 | 183 | 1.0 | 2.0 | 0.00 | 0.00 | 0.00 | 55 | 1010.7 |
| 20260509003013 | 68 | 217 | 0.0 | 2.0 | 0.00 | 0.00 | 0.00 | 54 | 1010.9 |
| 20260509002504 | 69 | 228 | 1.0 | 2.0 | 0.00 | 0.00 | 0.00 | 54 | 1011.0 |
| 20260509002003 | 69 | 246 | 1.0 | 2.0 | 0.00 | 0.00 | 0.00 | 53 | 1010.7 |
| 20260509001510 | 69 | 234 | 0.0 | 3.0 | 0.00 | 0.00 | 0.00 | 53 | 1010.7 |
| 20260509001006 | 69 | 231 | 1.0 | 4.0 | 0.00 | 0.00 | 0.00 | 53 | 1010.6 |
| 20260509000503 | 70 | 257 | 1.0 | 5.0 | 0.00 | 0.00 | 0.00 | 53 | 1010.7 |
| 20260509000014 | 70 | 229 | 2.0 | 5.0 | 0.00 | 0.00 | 0.00 | 52 | 1010.5 |
| 20260508235507 | 70 | 250 | 2.0 | 6.0 | 0.00 | 0.00 | 0.00 | 51 | 1010.4 |
| 20260508235007 | 70 | 229 | 2.0 | 7.0 | 0.00 | 0.00 | 0.00 | 51 | 1010.1 |
| 20260508234519 | 71 | 181 | 4.0 | 7.0 | 0.00 | 0.00 | 0.00 | 50 | 1010.0 |
| 20260508234006 | 71 | 237 | 3.0 | 8.0 | 0.00 | 0.00 | 0.00 | 51 | 1010.0 |
| 20260508233503 | 71 | 187 | 4.0 | 8.0 | 0.00 | 0.00 | 0.00 | 49 | 1010.1 |
| 20260508233004 | 71 | 194 | 2.0 | 8.0 | 0.00 | 0.00 | 0.00 | 50 | 1010.1 |
| 20260508232502 | 71 | 174 | 4.0 | 10.0 | 0.00 | 0.00 | 0.00 | 49 | 1010.1 |
| 20260508232003 | 72 | 180 | 3.0 | 10.0 | 0.00 | 0.00 | 0.00 | 49 | 1010.1 |
| 20260508231507 | 72 | 210 | 4.0 | 9.0 | 0.00 | 0.00 | 0.00 | 49 | 1010.2 |
| 20260508231004 | 72 | 175 | 2.0 | 9.0 | 0.00 | 0.00 | 0.00 | 50 | 1010.1 |
| 20260508230504 | 72 | 183 | 3.0 | 9.0 | 0.00 | 0.00 | 0.00 | 50 | 1010.2 |
| 20260508230011 | 72 | 163 | 5.0 | 10.0 | 0.00 | 0.00 | 0.00 | 49 | 1010.1 |
| 20260508225506 | 72 | 172 | 3.0 | 10.0 | 0.00 | 0.00 | 0.00 | 50 | 1010.1 |
| 20260508225008 | 72 | 180 | 4.0 | 9.0 | 0.00 | 0.00 | 0.00 | 48 | 1010.1 |
| 20260508224523 | 72 | 225 | 4.0 | 10.0 | 0.00 | 0.00 | 0.00 | 48 | 1010.2 |
| 20260508224006 | 73 | 178 | 5.0 | 11.0 | 0.00 | 0.00 | 0.00 | 47 | 1010.2 |
| 20260508223506 | 73 | 191 | 4.0 | 11.0 | 0.00 | 0.00 | 0.00 | 48 | 1010.2 |
| 20260508223027 | 73 | 234 | 3.0 | 11.0 | 0.00 | 0.00 | 0.00 | 48 | 1010.2 |
| 20260508222502 | 73 | 186 | 3.0 | 11.0 | 0.00 | 0.00 | 0.00 | 48 | 1010.2 |
| 20260508222003 | 73 | 192 | 4.0 | 9.0 | 0.00 | 0.00 | 0.00 | 44 | 1010.1 |
| 20260508221507 | 74 | 173 | 5.0 | 9.0 | 0.00 | 0.00 | 0.00 | 44 | 1010.2 |
| 20260508221004 | 74 | 166 | 4.0 | 9.0 | 0.00 | 0.00 | 0.00 | 45 | 1010.1 |
| 20260508220504 | 74 | 184 | 4.0 | 9.0 | 0.00 | 0.00 | 0.00 | 43 | 1009.9 |
| 20260508220009 | 73 | 163 | 4.0 | 11.0 | 0.00 | 0.00 | 0.00 | 44 | 1010.1 |
| 20260508215517 | 74 | 113 | 3.0 | 14.0 | 0.00 | 0.00 | 0.00 | 43 | 1010.2 |
| 20260508215005 | 74 | 184 | 6.0 | 14.0 | 0.00 | 0.00 | 0.00 | 43 | 1010.3 |
| 20260508214525 | 74 | 225 | 4.0 | 9.0 | 0.00 | 0.00 | 0.00 | 44 | 1010.3 |
| 20260508214005 | 74 | 219 | 3.0 | 9.0 | 0.00 | 0.00 | 0.00 | 46 | 1010.3 |
| 20260508213506 | 74 | 13 | 5.0 | 12.0 | 0.00 | 0.00 | 0.00 | 42 | 1010.5 |
| 20260508213019 | 74 | 183 | 6.0 | 12.0 | 0.00 | 0.00 | 0.00 | 46 | 1010.6 |
| 20260508212508 | 74 | 232 | 3.0 | 11.0 | 0.00 | 0.00 | 0.00 | 46 | 1010.6 |
| 20260508212010 | 74 | 192 | 3.0 | 11.0 | 0.00 | 0.00 | 0.00 | 46 | 1010.5 |
| 20260508211534 | 73 | 222 | 6.0 | 12.0 | 0.00 | 0.00 | 0.00 | 45 | 1010.6 |
| 20260508211003 | 74 | 223 | 5.0 | 12.0 | 0.00 | 0.00 | 0.00 | 45 | 1010.6 |
| 20260508210503 | 74 | 148 | 5.0 | 10.0 | 0.00 | 0.00 | 0.00 | 45 | 1010.7 |
| 20260508210008 | 74 | 230 | 5.0 | 10.0 | 0.00 | 0.00 | 0.00 | 46 | 1010.9 |
| 20260508205504 | 73 | 178 | 3.0 | 10.0 | 0.00 | 0.00 | 0.00 | 46 | 1010.9 |
| 20260508205004 | 73 | 163 | 5.0 | 12.0 | 0.00 | 0.00 | 0.00 | 45 | 1011.1 |
| 20260508204512 | 73 | 213 | 7.0 | 12.0 | 0.00 | 0.00 | 0.00 | 43 | 1011.2 |
| 20260508204005 | 73 | 244 | 6.0 | 12.0 | 0.00 | 0.00 | 0.00 | 44 | 1011.1 |
| 20260508203504 | 74 | 158 | 2.0 | 11.0 | 0.00 | 0.00 | 0.00 | 50 | 1011.1 |
| 20260508203017 | 73 | 294 | 4.0 | 9.0 | 0.00 | 0.00 | 0.00 | 47 | 1011.2 |
| 20260508202508 | 73 | 224 | 5.0 | 11.0 | 0.00 | 0.00 | 0.00 | 45 | 1011.3 |
| 20260508202006 | 74 | 213 | 7.0 | 11.0 | 0.00 | 0.00 | 0.00 | 45 | 1011.4 |
| 20260508201520 | 73 | 232 | 5.0 | 11.0 | 0.00 | 0.00 | 0.00 | 45 | 1011.5 |
| 20260508201011 | 74 | 241 | 4.0 | 10.0 | 0.00 | 0.00 | 0.00 | 44 | 1011.6 |
| 20260508200508 | 74 | 178 | 5.0 | 10.0 | 0.00 | 0.00 | 0.00 | 46 | 1011.6 |
| 20260508200026 | 73 | 153 | 2.0 | 11.0 | 0.00 | 0.00 | 0.00 | 48 | 1011.7 |
| 20260508195507 | 73 | 198 | 4.0 | 11.0 | 0.00 | 0.00 | 0.00 | 46 | 1011.8 |
| 20260508195003 | 73 | 169 | 5.0 | 11.0 | 0.00 | 0.00 | 0.00 | 45 | 1011.9 |
| 20260508194524 | 72 | 253 | 6.0 | 11.0 | 0.00 | 0.00 | 0.00 | 45 | 1011.9 |
| 20260508194005 | 73 | 205 | 6.0 | 10.0 | 0.00 | 0.00 | 0.00 | 43 | 1012.0 |
| 20260508193504 | 73 | 191 | 4.0 | 13.0 | 0.00 | 0.00 | 0.00 | 46 | 1012.0 |
| 20260508193027 | 73 | 154 | 7.0 | 13.0 | 0.00 | 0.00 | 0.00 | 44 | 1012.1 |
| 20260508192511 | 73 | 190 | 4.0 | 9.0 | 0.00 | 0.00 | 0.00 | 46 | 1012.0 |
| 20260508192008 | 73 | 173 | 4.0 | 10.0 | 0.00 | 0.00 | 0.00 | 46 | 1012.1 |
| 20260508191526 | 72 | 154 | 6.0 | 10.0 | 0.00 | 0.00 | 0.00 | 50 | 1012.2 |
| 20260508191007 | 72 | 198 | 2.0 | 10.0 | 0.00 | 0.00 | 0.00 | 43 | 1012.2 |
| 20260508190511 | 72 | 169 | 5.0 | 10.0 | 0.00 | 0.00 | 0.00 | 45 | 1012.3 |
| 20260508190023 | 72 | 206 | 4.0 | 11.0 | 0.00 | 0.00 | 0.00 | 46 | 1012.2 |
| 20260508185508 | 72 | 191 | 5.0 | 12.0 | 0.00 | 0.00 | 0.00 | 45 | 1012.4 |
| 20260508185012 | 72 | 205 | 7.0 | 13.0 | 0.00 | 0.00 | 0.00 | 46 | 1012.5 |
| 20260508184509 | 72 | 213 | 4.0 | 13.0 | 0.00 | 0.00 | 0.00 | 48 | 1012.6 |
| 20260508184003 | 72 | 242 | 5.0 | 13.0 | 0.00 | 0.00 | 0.00 | 43 | 1012.7 |
| 20260508183503 | 71 | 196 | 6.0 | 12.0 | 0.00 | 0.00 | 0.00 | 46 | 1012.7 |
| 20260508183022 | 71 | 162 | 5.0 | 11.0 | 0.00 | 0.00 | 0.00 | 47 | 1012.7 |
| 20260508182507 | 71 | 167 | 5.0 | 12.0 | 0.00 | 0.00 | 0.00 | 48 | 1012.8 |
| 20260508182007 | 71 | 243 | 5.0 | 12.0 | 0.00 | 0.00 | 0.00 | 43 | 1012.9 |
| 20260508181536 | 71 | 180 | 6.0 | 12.0 | 0.00 | 0.00 | 0.00 | 44 | 1013.0 |
| 20260508181010 | 70 | 229 | 5.0 | 13.0 | 0.00 | 0.00 | 0.00 | 46 | 1013.2 |
| 20260508180509 | 70 | 218 | 5.0 | 13.0 | 0.00 | 0.00 | 0.00 | 47 | 1013.2 |
| 20260508180024 | 70 | 196 | 3.0 | 9.0 | 0.00 | 0.00 | 0.00 | 45 | 1013.3 |
| 20260508175507 | 70 | 287 | 3.0 | 10.0 | 0.00 | 0.00 | 0.00 | 50 | 1013.4 |
| 20260508175017 | 70 | 226 | 6.0 | 10.0 | 0.00 | 0.00 | 0.00 | 46 | 1013.5 |
| 20260508174526 | 70 | 179 | 6.0 | 10.0 | 0.00 | 0.00 | 0.00 | 46 | 1013.5 |
| 20260508174008 | 70 | 252 | 3.0 | 10.0 | 0.00 | 0.00 | 0.00 | 49 | 1013.6 |
| 20260508173511 | 69 | 217 | 5.0 | 11.0 | 0.00 | 0.00 | 0.00 | 51 | 1013.6 |
| 20260508173010 | 69 | 195 | 6.0 | 12.0 | 0.00 | 0.00 | 0.00 | 51 | 1013.8 |
| 20260508172503 | 69 | 225 | 6.0 | 12.0 | 0.00 | 0.00 | 0.00 | 49 | 1013.8 |
| 20260508172008 | 69 | 265 | 4.0 | 14.0 | 0.00 | 0.00 | 0.00 | 51 | 1013.9 |
| 20260508171518 | 69 | 184 | 4.0 | 14.0 | 0.00 | 0.00 | 0.00 | 52 | 1014.0 |
| 20260508171005 | 69 | 219 | 4.0 | 11.0 | 0.00 | 0.00 | 0.00 | 54 | 1014.0 |
| 20260508170507 | 69 | 161 | 5.0 | 10.0 | 0.00 | 0.00 | 0.00 | 53 | 1014.0 |
| 20260508170020 | 68 | 185 | 3.0 | 9.0 | 0.00 | 0.00 | 0.00 | 58 | 1014.0 |
| 20260508165507 | 68 | 221 | 3.0 | 10.0 | 0.00 | 0.00 | 0.00 | 53 | 1014.2 |
| 20260508165006 | 68 | 209 | 6.0 | 11.0 | 0.00 | 0.00 | 0.00 | 55 | 1014.4 |
| 20260508164527 | 68 | 186 | 4.0 | 11.0 | 0.00 | 0.00 | 0.00 | 55 | 1014.4 |
| 20260508164012 | 67 | 175 | 4.0 | 10.0 | 0.00 | 0.00 | 0.00 | 58 | 1014.4 |
| 20260508163509 | 67 | 253 | 5.0 | 11.0 | 0.00 | 0.00 | 0.00 | 59 | 1014.5 |
| 20260508163027 | 67 | 235 | 5.0 | 12.0 | 0.00 | 0.00 | 0.00 | 56 | 1014.5 |
| 20260508162510 | 67 | 192 | 6.0 | 12.0 | 0.00 | 0.00 | 0.00 | 57 | 1014.6 |
| 20260508162013 | 66 | 275 | 3.0 | 13.0 | 0.00 | 0.00 | 0.00 | 60 | 1014.5 |
| 20260508161516 | 66 | 163 | 6.0 | 14.0 | 0.00 | 0.00 | 0.00 | 58 | 1014.5 |
| 20260508161005 | 66 | 200 | 7.0 | 14.0 | 0.00 | 0.00 | 0.00 | 59 | 1014.6 |
| 20260508160506 | 66 | 190 | 7.0 | 12.0 | 0.00 | 0.00 | 0.00 | 60 | 1014.5 |
| 20260508160019 | 66 | 180 | 6.0 | 14.0 | 0.00 | 0.00 | 0.00 | 61 | 1014.6 |
| 20260508155507 | 65 | 276 | 4.0 | 14.0 | 0.00 | 0.00 | 0.00 | 64 | 1014.6 |
| 20260508155007 | 65 | 211 | 6.0 | 11.0 | 0.00 | 0.00 | 0.00 | 65 | 1014.7 |
| 20260508154541 | 64 | 137 | 4.0 | 14.0 | 0.00 | 0.00 | 0.00 | 65 | 1014.7 |
| 20260508154003 | 64 | 202 | 5.0 | 14.0 | 0.00 | 0.00 | 0.00 | 64 | 1014.7 |
| 20260508153503 | 64 | 161 | 5.0 | 12.0 | 0.00 | 0.00 | 0.00 | 63 | 1014.9 |
| 20260508153004 | 63 | 179 | 6.0 | 13.0 | 0.00 | 0.00 | 0.00 | 64 | 1015.0 |
| 20260508152504 | 63 | 185 | 7.0 | 13.0 | 0.00 | 0.00 | 0.00 | 65 | 1015.0 |
| 20260508152003 | 63 | 227 | 6.0 | 19.0 | 0.00 | 0.00 | 0.00 | 67 | 1015.0 |
| 20260508151508 | 62 | 197 | 6.0 | 19.0 | 0.00 | 0.00 | 0.00 | 67 | 1015.0 |
| 20260508151002 | 62 | 192 | 6.0 | 18.0 | 0.00 | 0.00 | 0.00 | 66 | 1015.0 |
| 20260508150504 | 62 | 221 | 6.0 | 18.0 | 0.00 | 0.00 | 0.00 | 68 | 1015.1 |
| 20260508150004 | 62 | 234 | 7.0 | 15.0 | 0.00 | 0.00 | 0.00 | 67 | 1015.1 |
| 20260508145503 | 62 | 209 | 6.0 | 14.0 | 0.00 | 0.00 | 0.00 | 67 | 1015.2 |
| 20260508145002 | 61 | 170 | 6.0 | 14.0 | 0.00 | 0.00 | 0.00 | 69 | 1015.2 |
| 20260508144504 | 61 | 207 | 6.0 | 14.0 | 0.00 | 0.00 | 0.00 | 69 | 1015.2 |
| 20260508144006 | 61 | 211 | 6.0 | 13.0 | 0.00 | 0.00 | 0.00 | 69 | 1015.2 |
| 20260508143505 | 60 | 151 | 7.0 | 15.0 | 0.00 | 0.00 | 0.00 | 70 | 1015.1 |
| 20260508143003 | 60 | 218 | 6.0 | 15.0 | 0.00 | 0.00 | 0.00 | 71 | 1015.1 |
| 20260508142503 | 60 | 175 | 4.0 | 14.0 | 0.00 | 0.00 | 0.00 | 72 | 1015.1 |
| 20260508142003 | 59 | 207 | 6.0 | 14.0 | 0.00 | 0.00 | 0.00 | 71 | 1015.2 |
| 20260508141504 | 59 | 213 | 7.0 | 18.0 | 0.00 | 0.00 | 0.00 | 71 | 1015.1 |
| 20260508141003 | 59 | 248 | 9.0 | 18.0 | 0.00 | 0.00 | 0.00 | 71 | 1015.1 |
| 20260508140503 | 59 | 252 | 4.0 | 14.0 | 0.00 | 0.00 | 0.00 | 73 | 1015.2 |
| 20260508140007 | 58 | 207 | 5.0 | 16.0 | 0.00 | 0.00 | 0.00 | 74 | 1015.2 |
| 20260508135506 | 58 | 205 | 6.0 | 16.0 | 0.00 | 0.00 | 0.00 | 74 | 1015.3 |
| 20260508135007 | 57 | 197 | 5.0 | 13.0 | 0.00 | 0.00 | 0.00 | 74 | 1015.3 |
| 20260508134508 | 57 | 195 | 5.0 | 13.0 | 0.00 | 0.00 | 0.00 | 75 | 1015.3 |
| 20260508134004 | 57 | 238 | 6.0 | 11.0 | 0.00 | 0.00 | 0.00 | 75 | 1015.3 |
| 20260508133503 | 56 | 201 | 6.0 | 12.0 | 0.00 | 0.00 | 0.00 | 76 | 1015.3 |
| 20260508133008 | 56 | 204 | 5.0 | 12.0 | 0.00 | 0.00 | 0.00 | 76 | 1015.3 |
| 20260508132504 | 56 | 204 | 5.0 | 12.0 | 0.00 | 0.00 | 0.00 | 76 | 1015.4 |
| 20260508132004 | 56 | 191 | 5.0 | 12.0 | 0.00 | 0.00 | 0.00 | 76 | 1015.4 |
| 20260508131508 | 55 | 211 | 3.0 | 10.0 | 0.00 | 0.00 | 0.00 | 78 | 1015.4 |
| 20260508131004 | 55 | 181 | 6.0 | 11.0 | 0.00 | 0.00 | 0.00 | 77 | 1015.5 |
| 20260508130504 | 55 | 250 | 6.0 | 13.0 | 0.00 | 0.00 | 0.00 | 78 | 1015.4 |
| 20260508130011 | 54 | 188 | 5.0 | 13.0 | 0.00 | 0.00 | 0.00 | 78 | 1015.4 |
| 20260508125504 | 54 | 222 | 5.0 | 13.0 | 0.00 | 0.00 | 0.00 | 78 | 1015.4 |
| 20260508125004 | 54 | 254 | 7.0 | 11.0 | 0.00 | 0.00 | 0.00 | 78 | 1015.3 |
| 20260508124508 | 53 | 210 | 5.0 | 12.0 | 0.00 | 0.00 | 0.00 | 78 | 1015.3 |
| 20260508124004 | 53 | 229 | 5.0 | 12.0 | 0.00 | 0.00 | 0.00 | 78 | 1015.3 |
| 20260508123506 | 53 | 205 | 4.0 | 10.0 | 0.00 | 0.00 | 0.00 | 78 | 1015.3 |
| 20260508123015 | 53 | 234 | 5.0 | 14.0 | 0.00 | 0.00 | 0.00 | 78 | 1015.3 |
| 20260508122504 | 52 | 217 | 6.0 | 14.0 | 0.00 | 0.00 | 0.00 | 78 | 1015.2 |
| 20260508122004 | 52 | 195 | 6.0 | 11.0 | 0.00 | 0.00 | 0.00 | 78 | 1015.2 |
| 20260508121513 | 52 | 211 | 4.0 | 10.0 | 0.00 | 0.00 | 0.00 | 77 | 1015.1 |
| 20260508121003 | 52 | 187 | 4.0 | 10.0 | 0.00 | 0.00 | 0.00 | 77 | 1015.1 |
| 20260508120503 | 51 | 219 | 4.0 | 9.0 | 0.00 | 0.00 | 0.00 | 77 | 1015.1 |
| 20260508120010 | 51 | 185 | 4.0 | 9.0 | 0.00 | 0.00 | 0.00 | 76 | 1015.0 |
| 20260508115504 | 51 | 198 | 5.0 | 8.0 | 0.00 | 0.00 | 0.00 | 76 | 1014.9 |
| 20260508115003 | 51 | 191 | 4.0 | 9.0 | 0.00 | 0.00 | 0.00 | 75 | 1015.0 |
| 20260508114508 | 51 | 178 | 4.0 | 9.0 | 0.00 | 0.00 | 0.00 | 75 | 1015.0 |
| 20260508114004 | 51 | 166 | 3.0 | 8.0 | 0.00 | 0.00 | 0.00 | 75 | 1015.0 |
| 20260508113504 | 50 | 259 | 5.0 | 9.0 | 0.00 | 0.00 | 0.00 | 75 | 1014.9 |
| 20260508113010 | 50 | 171 | 3.0 | 9.0 | 0.00 | 0.00 | 0.00 | 75 | 1014.8 |
| 20260508112504 | 50 | 181 | 3.0 | 7.0 | 0.00 | 0.00 | 0.00 | 75 | 1014.9 |
| 20260508112003 | 50 | 192 | 3.0 | 7.0 | 0.00 | 0.00 | 0.00 | 74 | 1014.9 |
| 20260508111507 | 50 | 188 | 3.0 | 7.0 | 0.00 | 0.00 | 0.00 | 74 | 1014.7 |
| 20260508111002 | 50 | 200 | 2.0 | 7.0 | 0.00 | 0.00 | 0.00 | 74 | 1014.6 |
| 20260508110503 | 50 | 211 | 2.0 | 7.0 | 0.00 | 0.00 | 0.00 | 74 | 1014.7 |
| 20260508110011 | 49 | 215 | 3.0 | 7.0 | 0.00 | 0.00 | 0.00 | 73 | 1014.7 |
| 20260508105503 | 49 | 196 | 2.0 | 6.0 | 0.00 | 0.00 | 0.00 | 73 | 1014.7 |
| 20260508105008 | 49 | 223 | 3.0 | 7.0 | 0.00 | 0.00 | 0.00 | 74 | 1014.6 |
| 20260508104512 | 49 | 162 | 3.0 | 7.0 | 0.00 | 0.00 | 0.00 | 74 | 1014.6 |
| 20260508104004 | 49 | 238 | 2.0 | 4.0 | 0.00 | 0.00 | 0.00 | 74 | 1014.7 |
| 20260508103504 | 49 | 253 | 3.0 | 5.0 | 0.00 | 0.00 | 0.00 | 74 | 1014.8 |
| 20260508103016 | 49 | 204 | 2.0 | 5.0 | 0.00 | 0.00 | 0.00 | 73 | 1014.7 |
| 20260508102503 | 49 | 215 | 1.0 | 5.0 | 0.00 | 0.00 | 0.00 | 73 | 1014.7 |
| 20260508102005 | 49 | 196 | 2.0 | 5.0 | 0.00 | 0.00 | 0.00 | 73 | 1014.6 |
| 20260508101514 | 49 | 224 | 2.0 | 5.0 | 0.00 | 0.00 | 0.00 | 73 | 1014.6 |
| 20260508101004 | 49 | 250 | 1.0 | 4.0 | 0.00 | 0.00 | 0.00 | 73 | 1014.6 |
| 20260508100504 | 49 | 229 | 1.0 | 3.0 | 0.00 | 0.00 | 0.00 | 73 | 1014.6 |
| 20260508100019 | 49 | 224 | 1.0 | 3.0 | 0.00 | 0.00 | 0.00 | 72 | 1014.6 |
| 20260508095506 | 50 | 229 | 1.0 | 3.0 | 0.00 | 0.00 | 0.00 | 72 | 1014.5 |
| 20260508095004 | 49 | 190 | 1.0 | 3.0 | 0.00 | 0.00 | 0.00 | 72 | 1014.6 |
| 20260508094512 | 50 | 172 | 1.0 | 5.0 | 0.00 | 0.00 | 0.00 | 72 | 1014.5 |
| 20260508094003 | 49 | 178 | 1.0 | 5.0 | 0.00 | 0.00 | 0.00 | 72 | 1014.5 |
| 20260508093507 | 49 | 188 | 1.0 | 4.0 | 0.00 | 0.00 | 0.00 | 73 | 1014.4 |
| 20260508093019 | 49 | 186 | 1.0 | 4.0 | 0.00 | 0.00 | 0.00 | 74 | 1014.3 |
| 20260508092503 | 49 | 217 | 1.0 | 4.0 | 0.00 | 0.00 | 0.00 | 74 | 1014.5 |
| 20260508092003 | 49 | 209 | 2.0 | 5.0 | 0.00 | 0.00 | 0.00 | 75 | 1014.5 |
| 20260508091517 | 48 | 230 | 2.0 | 5.0 | 0.00 | 0.00 | 0.00 | 75 | 1014.5 |
| 20260508091008 | 48 | 232 | 2.0 | 3.0 | 0.00 | 0.00 | 0.00 | 75 | 1014.5 |
| 20260508090505 | 48 | 221 | 0.0 | 3.0 | 0.00 | 0.00 | 0.00 | 76 | 1014.5 |
| 20260508090033 | 48 | 210 | 1.0 | 3.0 | 0.00 | 0.00 | 0.00 | 76 | 1014.6 |
| 20260508085506 | 48 | 230 | 1.0 | 3.0 | 0.00 | 0.00 | 0.00 | 77 | 1014.6 |
| 20260508085006 | 48 | 205 | 1.0 | 4.0 | 0.00 | 0.00 | 0.00 | 77 | 1014.6 |
| 20260508084514 | 47 | 209 | 1.0 | 4.0 | 0.00 | 0.00 | 0.00 | 1014.6 | |
| 20260508084008 | 47 | 139 | 1.0 | 5.0 | 0.00 | 0.00 | 0.00 | 1014.7 | |
| 20260508083507 | 47 | 184 | 2.0 | 5.0 | 0.00 | 0.00 | 0.00 | 1014.9 | |
| 20260508083015 | 47 | 213 | 1.0 | 3.0 | 0.00 | 0.00 | 0.00 | 1015.0 | |
| 20260508082507 | 46 | 230 | 2.0 | 3.0 | 0.00 | 0.00 | 0.00 | 1015.0 | |
| 20260508082008 | 46 | 205 | 1.0 | 3.0 | 0.00 | 0.00 | 0.00 | 1015.0 | |
| 20260508081520 | 46 | 193 | 0.0 | 3.0 | 0.00 | 0.00 | 0.00 | 1015.0 | |
| 20260508081004 | 46 | 216 | 1.0 | 3.0 | 0.00 | 0.00 | 0.00 | 83 | 1014.9 |
| 20260508080512 | 46 | 231 | 1.0 | 3.0 | 0.00 | 0.00 | 0.00 | 83 | 1015.0 |
| 20260508080019 | 46 | 211 | 0.0 | 2.0 | 0.00 | 0.00 | 0.00 | 83 | 1014.9 |
| 20260508075508 | 45 | 190 | 1.0 | 3.0 | 0.00 | 0.00 | 0.00 | 83 | 1015.0 |
| 20260508075008 | 45 | 223 | 1.0 | 3.0 | 0.00 | 0.00 | 0.00 | 84 | 1015.2 |
| 20260508074524 | 45 | 223 | 1.0 | 3.0 | 0.00 | 0.00 | 0.00 | 84 | 1015.3 |
| 20260508074006 | 45 | 213 | 1.0 | 2.0 | 0.00 | 0.00 | 0.00 | 84 | 1015.2 |
| 20260508073504 | 45 | 219 | 1.0 | 2.0 | 0.00 | 0.00 | 0.00 | 84 | 1015.3 |
| 20260508073016 | 45 | 224 | 0.0 | 2.0 | 0.00 | 0.00 | 0.00 | 84 | 1015.3 |
| 20260508072503 | 45 | 224 | 1.0 | 3.0 | 0.00 | 0.00 | 0.00 | 84 | 1015.5 |
| 20260508072003 | 45 | 225 | 2.0 | 3.0 | 0.00 | 0.00 | 0.00 | 84 | 1015.5 |
| 20260508071520 | 45 | 222 | 2.0 | 2.0 | 0.00 | 0.00 | 0.00 | 84 | 1015.5 |
| 20260508071008 | 45 | 219 | 1.0 | 2.0 | 0.00 | 0.00 | 0.00 | 84 | 1015.6 |
| 20260508070510 | 45 | 218 | 1.0 | 3.0 | 0.00 | 0.00 | 0.00 | 84 | 1015.6 |
| 20260508070003 | 45 | 221 | 1.0 | 3.0 | 0.00 | 0.00 | 0.00 | 83 | 1015.7 |
| 20260508065501 | 45 | 217 | 2.0 | 3.0 | 0.00 | 0.00 | 0.00 | 83 | 1015.8 |
| 20260508065004 | 46 | 217 | 2.0 | 3.0 | 0.00 | 0.00 | 0.00 | 82 | 1016.0 |
| 20260508064506 | 46 | 215 | 2.0 | 3.0 | 0.00 | 0.00 | 0.00 | 82 | 1016.0 |
| 20260508064006 | 46 | 222 | 2.0 | 3.0 | 0.00 | 0.00 | 0.00 | 81 | 1016.0 |
| 20260508063504 | 47 | 211 | 1.0 | 2.0 | 0.00 | 0.00 | 0.00 | 81 | 1016.0 |
| 20260508063022 | 47 | 226 | 2.0 | 2.0 | 0.00 | 0.00 | 0.00 | 81 | 1016.1 |
| 20260508062503 | 47 | 226 | 0.0 | 2.0 | 0.00 | 0.00 | 0.00 | 80 | 1016.2 |
| 20260508062003 | 48 | 226 | 1.0 | 2.0 | 0.00 | 0.00 | 0.00 | 79 | 1016.3 |
| 20260508061516 | 48 | 226 | 2.0 | 2.0 | 0.00 | 0.00 | 0.00 | 78 | 1016.4 |
| 20260508061006 | 48 | 226 | 2.0 | 2.0 | 0.00 | 0.00 | 0.00 | 78 | 1016.4 |
| 20260508060509 | 48 | 226 | 0.0 | 2.0 | 0.00 | 0.00 | 0.00 | 77 | 1016.4 |
| 20260508060021 | 49 | 226 | 1.0 | 2.0 | 0.00 | 0.00 | 0.00 | 77 | 1016.3 |
| 20260508055506 | 48 | 226 | 1.0 | 2.0 | 0.00 | 0.00 | 0.00 | 77 | 1016.3 |
| 20260508055010 | 48 | 226 | 1.0 | 2.0 | 0.00 | 0.00 | 0.00 | 77 | 1016.3 |
| 20260508054503 | 48 | 209 | 1.0 | 2.0 | 0.00 | 0.00 | 0.00 | 77 | 1016.3 |
| 20260508054006 | 48 | 209 | 1.0 | 2.0 | 0.00 | 0.00 | 0.00 | 77 | 1016.4 |
| 20260508053503 | 49 | 209 | 1.0 | 2.0 | 0.00 | 0.00 | 0.00 | 77 | 1016.4 |
| 20260508053011 | 49 | 209 | 0.0 | 2.0 | 0.00 | 0.00 | 0.00 | 77 | 1016.4 |
| 20260508052506 | 49 | 209 | 0.0 | 2.0 | 0.00 | 0.00 | 0.00 | 76 | 1016.4 |
| 20260508052004 | 49 | 209 | 0.0 | 2.0 | 0.00 | 0.00 | 0.00 | 76 | 1016.4 |
| 20260508051514 | 49 | 209 | 0.0 | 2.0 | 0.00 | 0.00 | 0.00 | 77 | 1016.4 |
| 20260508051005 | 49 | 184 | 0.0 | 2.0 | 0.00 | 0.00 | 0.00 | 77 | 1016.4 |
| 20260508050504 | 49 | 184 | 0.0 | 3.0 | 0.00 | 0.00 | 0.00 | 77 | 1016.4 |
| 20260508050016 | 49 | 236 | 1.0 | 3.0 | 0.00 | 0.00 | 0.00 | 77 | 1016.4 |
| 20260508045510 | 48 | 211 | 1.0 | 3.0 | 0.00 | 0.00 | 0.00 | 77 | 1016.4 |
| 20260508045009 | 48 | 182 | 0.0 | 2.0 | 0.00 | 0.00 | 0.00 | 78 | 1016.4 |
| 20260508044522 | 48 | 182 | 0.0 | 3.0 | 0.00 | 0.00 | 0.00 | 78 | 1016.4 |
| 20260508044007 | 48 | 180 | 1.0 | 3.0 | 0.00 | 0.00 | 0.00 | 78 | 1016.5 |
| 20260508043507 | 48 | 234 | 0.0 | 2.0 | 0.00 | 0.00 | 0.00 | 79 | 1016.5 |
| 20260508043008 | 48 | 234 | 0.0 | 3.0 | 0.00 | 0.00 | 0.00 | 79 | 1016.5 |
| 20260508042504 | 47 | 215 | 1.0 | 3.0 | 0.00 | 0.00 | 0.00 | 81 | 1016.6 |
| 20260508042003 | 47 | 223 | 1.0 | 3.0 | 0.00 | 0.00 | 0.00 | 81 | 1016.6 |